Tracking 29747 objects as of 10-Oct-2024
HD Live streaming from Space Station
objects crossing your sky now

TANSUO 1

Track TANSUO 1 now!
10-day predictions
TANSUO 1 is classified as:


NORAD ID: 28220
Int'l Code: 2004-012A
Perigee: 521.6 km
Apogee: 533.6 km
Inclination: 98.0 °
Period: 95.0 minutes
Semi major axis: 6898 km
RCS: 1.6951 m2 (large)
Launch date: April 18, 2004
Source: People's Republic of China (PRC)
Launch site: Xichang Space Center, China (XSC)
Your satellite tracking list
Your tracking list is empty




NASA's NSSDC Master Catalog

Two Line Element Set (TLE):
1 28220U 04012A   24283.85717950  .00021910  00000-0  11681-2 0  9994
2 28220  97.9556 316.6676 0008703  12.3496 347.7946 15.15166771117330
Source of the keplerian elements: AFSPC